TimeEDT,TemperatureF,Dew PointF,Humidity,Sea Level PressureIn,VisibilityMPH,Wind Direction,Wind SpeedMPH,Gust SpeedMPH,PrecipitationIn,Events,Conditions,WindDirDegrees,DateUTC
12:56 AM,66.0,57.9,75,29.85,10.0,NNW,11.5,-,N/A,,Partly Cloudy,330,2013-07-24 04:56:00
1:56 AM,63.0,57.0,81,29.86,10.0,NNW,10.4,-,N/A,,Mostly Cloudy,330,2013-07-24 05:56:00
2:56 AM,61.0,55.9,83,29.86,10.0,NNW,9.2,-,N/A,,Partly Cloudy,330,2013-07-24 06:56:00
3:56 AM,60.1,55.9,86,29.85,10.0,NNW,8.1,-,N/A,,Scattered Clouds,330,2013-07-24 07:56:00
4:44 AM,60.8,57.2,88,29.88,10.0,NNW,8.1,-,N/A,,Mostly Cloudy,340,2013-07-24 08:44:00
4:56 AM,61.0,57.0,87,29.86,10.0,NNW,6.9,-,N/A,,Mostly Cloudy,340,2013-07-24 08:56:00
5:56 AM,61.0,55.0,81,29.88,10.0,North,13.8,-,N/A,,Mostly Cloudy,360,2013-07-24 09:56:00
6:56 AM,62.1,55.0,78,29.91,10.0,North,11.5,-,N/A,,Overcast,10,2013-07-24 10:56:00
7:56 AM,62.1,54.0,75,29.93,10.0,North,10.4,-,N/A,,Mostly Cloudy,10,2013-07-24 11:56:00
8:56 AM,64.0,55.0,73,29.94,10.0,NNE,11.5,-,N/A,,Mostly Cloudy,20,2013-07-24 12:56:00
9:14 AM,64.4,55.4,73,29.96,10.0,North,13.8,-,N/A,,Scattered Clouds,10,2013-07-24 13:14:00
9:42 AM,64.4,55.4,73,29.96,10.0,NNE,12.7,-,N/A,,Mostly Cloudy,20,2013-07-24 13:42:00
9:56 AM,64.9,55.9,73,29.95,10.0,NNE,13.8,-,N/A,,Mostly Cloudy,30,2013-07-24 13:56:00
10:56 AM,68.0,57.0,68,29.96,10.0,NE,9.2,-,N/A,,Mostly Cloudy,50,2013-07-24 14:56:00
11:56 AM,69.1,57.9,68,29.98,10.0,NNE,10.4,-,N/A,,Mostly Cloudy,30,2013-07-24 15:56:00
12:41 PM,71.6,59.0,64,29.99,10.0,NNE,9.2,-,N/A,,Mostly Cloudy,20,2013-07-24 16:41:00
12:56 PM,71.1,59.0,66,29.98,10.0,NNE,10.4,-,N/A,,Mostly Cloudy,30,2013-07-24 16:56:00
1:56 PM,73.9,57.9,57,29.97,10.0,NNE,12.7,-,N/A,,Mostly Cloudy,30,2013-07-24 17:56:00
2:56 PM,72.0,55.9,57,29.97,10.0,North,15.0,-,N/A,,Mostly Cloudy,10,2013-07-24 18:56:00
3:56 PM,73.9,55.0,52,29.98,10.0,North,11.5,-,N/A,,Mostly Cloudy,360,2013-07-24 19:56:00
4:56 PM,72.0,54.0,53,29.98,10.0,NNE,11.5,-,N/A,,Mostly Cloudy,20,2013-07-24 20:56:00
5:56 PM,73.0,55.0,53,29.98,10.0,NE,16.1,-,N/A,,Scattered Clouds,50,2013-07-24 21:56:00
6:56 PM,72.0,53.1,51,29.98,10.0,NE,12.7,-,N/A,,Partly Cloudy,50,2013-07-24 22:56:00
7:56 PM,70.0,53.1,55,29.99,10.0,NNE,9.2,-,N/A,,Partly Cloudy,30,2013-07-24 23:56:00
8:56 PM,64.9,54.0,68,30.00,10.0,NE,6.9,-,N/A,,Clear,50,2013-07-25 00:56:00
9:56 PM,63.0,54.0,72,30.01,10.0,NNE,5.8,-,N/A,,Clear,20,2013-07-25 01:56:00
10:56 PM,61.0,54.0,78,30.02,10.0,NNE,5.8,-,N/A,,Clear,30,2013-07-25 02:56:00
11:56 PM,59.0,54.0,83,30.04,10.0,NE,5.8,-,N/A,,Clear,40,2013-07-25 03:56:00